Emmett Eymard — WCY5116 — position and weather

sailwx.info

Track history (hours):
 
Tides and Currents Weather Stations Pressure Air Temp Water Temp Dewpoint Dewpoint Depression Visibility Wind Speed Wind Dir Waves Ship Positions

Emmett Eymard

More information available from US FCC via Universal Licensing System and Coast Guard Vessel Documentation Center.

Last reported at 2014-Aug-20 01:30 UTC. Time now 2014-Sep-03 02:27 UTC.
Position N 29°33' W 090°27'.
Warning: this ship's position is 14 days out of date.

Length 3 m.

MMSI: 366967780.

Date/timePositionNaut miles runAvg speedWind from/ knotsBaromVisibWave heightAir tempDewpointWater temp
2014-Aug-20 01:30N 29°33' W 090°27'7 7.5
2014-Aug-20 00:33N 29°35' W 090°35'22 5.2
2014-Aug-19 20:25N 29°37' W 090°60'6 7.4
2014-Aug-19 19:33N 29°38' W 091°07'3 2.5
2014-Aug-19 18:33N 29°41' W 091°08'5 5.1
2014-Aug-19 17:31N 29°37' W 091°04'20 3.8
2014-Aug-19 12:06N 29°36' W 090°40'1 2.4
2014-Aug-19 11:33N 29°36' W 090°39'5 5.1
2014-Aug-19 10:33N 29°34' W 090°33'6 5.6
2014-Aug-19 09:33N 29°33' W 090°27'  
2014-Aug-14 00:33N 29°33' W 090°27'5 5.5
2014-Aug-13 23:33N 29°34' W 090°33'22 3.5
2014-Aug-13 17:09N 29°37' W 090°59'6 2.3
2014-Aug-13 14:34N 29°38' W 091°05'3 3.0
2014-Aug-13 13:32N 29°40' W 091°08'0 0.0
2014-Aug-13 12:19N 29°40' W 091°08'1 1.1
2014-Aug-13 11:33N 29°41' W 091°09'1 1.2
2014-Aug-13 10:32N 29°41' W 091°10'0 0.0
2014-Aug-13 09:33N 29°41' W 091°10'0 0.0
2014-Aug-13 08:31N 29°41' W 091°10'0 0.0
2014-Aug-13 07:31N 29°41' W 091°10'0 0.0
2014-Aug-13 06:32N 29°41' W 091°10'0 0.0
2014-Aug-13 05:33N 29°41' W 091°10'0 0.0
2014-Aug-13 04:33N 29°41' W 091°10'0 0.0
2014-Aug-13 03:31N 29°41' W 091°10'0 0.0
2014-Aug-13 02:32N 29°41' W 091°10'0 0.0
2014-Aug-13 01:32N 29°41' W 091°10'0 0.0
2014-Aug-13 00:33N 29°41' W 091°10'0 0.0
2014-Aug-12 23:31N 29°41' W 091°10'0 0.0
2014-Aug-12 22:31N 29°41' W 091°10'0 0.0
2014-Aug-12 21:32N 29°41' W 091°10'2 1.9
2014-Aug-12 20:30N 29°40' W 091°08'2 2.1
2014-Aug-12 19:31N 29°41' W 091°10'0 0.0
2014-Aug-12 18:32N 29°41' W 091°10'0 0.0
2014-Aug-12 17:30N 29°41' W 091°10'0 0.0
2014-Aug-12 16:33N 29°41' W 091°10'0 0.0
2014-Aug-12 15:31N 29°41' W 091°10'0 0.0
2014-Aug-12 14:32N 29°41' W 091°10'0 0.0
2014-Aug-12 13:31N 29°41' W 091°10'2 2.2
2014-Aug-12 12:33N 29°40' W 091°08'0 0.0
2014-Aug-12 11:31N 29°40' W 091°08'0 0.0
2014-Aug-12 10:29N 29°40' W 091°08'0 0.0
2014-Aug-12 09:32N 29°40' W 091°08'0 0.0
2014-Aug-12 08:30N 29°40' W 091°08'0 0.0
2014-Aug-12 07:31N 29°40' W 091°08'0 0.0
2014-Aug-12 06:32N 29°40' W 091°08'0 0.0
2014-Aug-12 05:32N 29°40' W 091°08'0 0.0
2014-Aug-12 04:33N 29°40' W 091°08'0 0.0
2014-Aug-12 03:33N 29°40' W 091°08'0 0.0
2014-Aug-12 02:31N 29°40' W 091°08'0 0.0
2014-Aug-12 01:32N 29°40' W 091°08'2 1.7
2014-Aug-12 00:32N 29°40' W 091°06'0 0.1
2014-Aug-11 23:33N 29°40' W 091°06'4 3.8
2014-Aug-11 22:33N 29°41' W 091°10'3 3.2
2014-Aug-11 21:33N 29°39' W 091°07'4 3.8
2014-Aug-11 20:33N 29°37' W 091°03'2 1.6
2014-Aug-11 19:33N 29°39' W 091°02'2 1.2
2014-Aug-11 18:12N 29°37' W 091°03'4 6.3
2014-Aug-11 17:33N 29°39' W 091°07'3 2.8
2014-Aug-11 16:29N 29°41' W 091°10'0 0.0
2014-Aug-11 15:33N 29°41' W 091°10'0 0.0
2014-Aug-11 14:31N 29°41' W 091°10'0 0.0
2014-Aug-11 13:31N 29°41' W 091°10'0 0.0
2014-Aug-11 12:32N 29°41' W 091°10'0 0.0
2014-Aug-11 11:34N 29°41' W 091°10'0 0.0
2014-Aug-11 10:31N 29°41' W 091°10'0 0.0
2014-Aug-11 09:32N 29°41' W 091°10'0 0.0
2014-Aug-11 08:30N 29°41' W 091°10'0 0.0
2014-Aug-11 07:33N 29°41' W 091°10'0 0.0
2014-Aug-11 06:31N 29°41' W 091°10'0 0.0
2014-Aug-11 05:32N 29°41' W 091°10'0 0.0
2014-Aug-11 04:32N 29°41' W 091°10'0 0.0
2014-Aug-11 03:30N 29°41' W 091°10'0 0.0
2014-Aug-11 02:31N 29°41' W 091°10'0 0.0
2014-Aug-11 01:31N 29°41' W 091°10'0 0.0
2014-Aug-11 00:32N 29°41' W 091°10'2 2.1
2014-Aug-10 23:34N 29°40' W 091°08'3 3.4
2014-Aug-10 22:33N 29°37' W 091°06'5 4.8
2014-Aug-10 21:33N 29°36' W 091°11'5 5.0
2014-Aug-10 20:33N 29°32' W 091°15'1 1.2
2014-Aug-10 19:31N 29°32' W 091°16'1 1.1
2014-Aug-10 18:25N 29°31' W 091°16'0 0.1
2014-Aug-10 17:32N 29°31' W 091°16'0 0.0
2014-Aug-10 16:29N 29°31' W 091°16'0 0.1
2014-Aug-10 15:31N 29°31' W 091°16'0 0.0
2014-Aug-10 14:26N 29°31' W 091°16'0 0.1
2014-Aug-10 13:32N 29°31' W 091°16'0 0.1
2014-Aug-10 12:33N 29°31' W 091°16'0 0.0
2014-Aug-10 11:31N 29°31' W 091°16'0 0.0
2014-Aug-10 10:31N 29°31' W 091°16'0 0.0
2014-Aug-10 09:32N 29°31' W 091°16'0 0.0
2014-Aug-10 08:33N 29°31' W 091°16'0 0.0
2014-Aug-10 07:33N 29°31' W 091°16'0 0.0
2014-Aug-10 06:22N 29°31' W 091°16'0 0.0
2014-Aug-10 05:29N 29°31' W 091°16'0 0.0
2014-Aug-10 04:29N 29°31' W 091°16'0 0.0
2014-Aug-10 03:33N 29°31' W 091°16'0 0.0
2014-Aug-10 02:31N 29°31' W 091°16'0 0.0
2014-Aug-10 01:31N 29°31' W 091°16'  
Track history (hours):
 
Tides and Currents Weather Stations Pressure Air Temp Water Temp Dewpoint Dewpoint Depression Visibility Wind Speed Wind Dir Waves Ship Positions

Emmett Eymard

More information available from US FCC via Universal Licensing System and Coast Guard Vessel Documentation Center.

Last reported at 2014-Aug-20 01:30 UTC. Time now 2014-Sep-03 02:27 UTC.
Position N 29°33' W 090°27'.
Warning: this ship's position is 14 days out of date.

Length 3 m.

MMSI: 366967780.

Date/timePositionNaut miles runAvg speedWind from/ knotsBaromVisibWave heightAir tempDewpointWater temp
2014-Aug-20 01:30N 29°33' W 090°27'7 7.5
2014-Aug-20 00:33N 29°35' W 090°35'22 5.2
2014-Aug-19 20:25N 29°37' W 090°60'6 7.4
2014-Aug-19 19:33N 29°38' W 091°07'3 2.5
2014-Aug-19 18:33N 29°41' W 091°08'5 5.1
2014-Aug-19 17:31N 29°37' W 091°04'20 3.8
2014-Aug-19 12:06N 29°36' W 090°40'1 2.4
2014-Aug-19 11:33N 29°36' W 090°39'5 5.1
2014-Aug-19 10:33N 29°34' W 090°33'6 5.6
2014-Aug-19 09:33N 29°33' W 090°27'  
2014-Aug-14 00:33N 29°33' W 090°27'5 5.5
2014-Aug-13 23:33N 29°34' W 090°33'22 3.5
2014-Aug-13 17:09N 29°37' W 090°59'6 2.3
2014-Aug-13 14:34N 29°38' W 091°05'3 3.0
2014-Aug-13 13:32N 29°40' W 091°08'0 0.0
2014-Aug-13 12:19N 29°40' W 091°08'1 1.1
2014-Aug-13 11:33N 29°41' W 091°09'1 1.2
2014-Aug-13 10:32N 29°41' W 091°10'0 0.0
2014-Aug-13 09:33N 29°41' W 091°10'0 0.0
2014-Aug-13 08:31N 29°41' W 091°10'0 0.0
2014-Aug-13 07:31N 29°41' W 091°10'0 0.0
2014-Aug-13 06:32N 29°41' W 091°10'0 0.0
2014-Aug-13 05:33N 29°41' W 091°10'0 0.0
2014-Aug-13 04:33N 29°41' W 091°10'0 0.0
2014-Aug-13 03:31N 29°41' W 091°10'0 0.0
2014-Aug-13 02:32N 29°41' W 091°10'0 0.0
2014-Aug-13 01:32N 29°41' W 091°10'0 0.0
2014-Aug-13 00:33N 29°41' W 091°10'0 0.0
2014-Aug-12 23:31N 29°41' W 091°10'0 0.0
2014-Aug-12 22:31N 29°41' W 091°10'0 0.0
2014-Aug-12 21:32N 29°41' W 091°10'2 1.9
2014-Aug-12 20:30N 29°40' W 091°08'2 2.1
2014-Aug-12 19:31N 29°41' W 091°10'0 0.0
2014-Aug-12 18:32N 29°41' W 091°10'0 0.0
2014-Aug-12 17:30N 29°41' W 091°10'0 0.0
2014-Aug-12 16:33N 29°41' W 091°10'0 0.0
2014-Aug-12 15:31N 29°41' W 091°10'0 0.0
2014-Aug-12 14:32N 29°41' W 091°10'0 0.0
2014-Aug-12 13:31N 29°41' W 091°10'2 2.2
2014-Aug-12 12:33N 29°40' W 091°08'0 0.0
2014-Aug-12 11:31N 29°40' W 091°08'0 0.0
2014-Aug-12 10:29N 29°40' W 091°08'0 0.0
2014-Aug-12 09:32N 29°40' W 091°08'0 0.0
2014-Aug-12 08:30N 29°40' W 091°08'0 0.0
2014-Aug-12 07:31N 29°40' W 091°08'0 0.0
2014-Aug-12 06:32N 29°40' W 091°08'0 0.0
2014-Aug-12 05:32N 29°40' W 091°08'0 0.0
2014-Aug-12 04:33N 29°40' W 091°08'0 0.0
2014-Aug-12 03:33N 29°40' W 091°08'0 0.0
2014-Aug-12 02:31N 29°40' W 091°08'0 0.0
2014-Aug-12 01:32N 29°40' W 091°08'2 1.7
2014-Aug-12 00:32N 29°40' W 091°06'0 0.1
2014-Aug-11 23:33N 29°40' W 091°06'4 3.8
2014-Aug-11 22:33N 29°41' W 091°10'3 3.2
2014-Aug-11 21:33N 29°39' W 091°07'4 3.8
2014-Aug-11 20:33N 29°37' W 091°03'2 1.6
2014-Aug-11 19:33N 29°39' W 091°02'2 1.2
2014-Aug-11 18:12N 29°37' W 091°03'4 6.3
2014-Aug-11 17:33N 29°39' W 091°07'3 2.8
2014-Aug-11 16:29N 29°41' W 091°10'0 0.0
2014-Aug-11 15:33N 29°41' W 091°10'0 0.0
2014-Aug-11 14:31N 29°41' W 091°10'0 0.0
2014-Aug-11 13:31N 29°41' W 091°10'0 0.0
2014-Aug-11 12:32N 29°41' W 091°10'0 0.0
2014-Aug-11 11:34N 29°41' W 091°10'0 0.0
2014-Aug-11 10:31N 29°41' W 091°10'0 0.0
2014-Aug-11 09:32N 29°41' W 091°10'0 0.0
2014-Aug-11 08:30N 29°41' W 091°10'0 0.0
2014-Aug-11 07:33N 29°41' W 091°10'0 0.0
2014-Aug-11 06:31N 29°41' W 091°10'0 0.0
2014-Aug-11 05:32N 29°41' W 091°10'0 0.0
2014-Aug-11 04:32N 29°41' W 091°10'0 0.0
2014-Aug-11 03:30N 29°41' W 091°10'0 0.0
2014-Aug-11 02:31N 29°41' W 091°10'0 0.0
2014-Aug-11 01:31N 29°41' W 091°10'0 0.0
2014-Aug-11 00:32N 29°41' W 091°10'2 2.1
2014-Aug-10 23:34N 29°40' W 091°08'3 3.4
2014-Aug-10 22:33N 29°37' W 091°06'5 4.8
2014-Aug-10 21:33N 29°36' W 091°11'5 5.0
2014-Aug-10 20:33N 29°32' W 091°15'1 1.2
2014-Aug-10 19:31N 29°32' W 091°16'1 1.1
2014-Aug-10 18:25N 29°31' W 091°16'0 0.1
2014-Aug-10 17:32N 29°31' W 091°16'0 0.0
2014-Aug-10 16:29N 29°31' W 091°16'0 0.1
2014-Aug-10 15:31N 29°31' W 091°16'0 0.0
2014-Aug-10 14:26N 29°31' W 091°16'0 0.1
2014-Aug-10 13:32N 29°31' W 091°16'0 0.1
2014-Aug-10 12:33N 29°31' W 091°16'0 0.0
2014-Aug-10 11:31N 29°31' W 091°16'0 0.0
2014-Aug-10 10:31N 29°31' W 091°16'0 0.0
2014-Aug-10 09:32N 29°31' W 091°16'0 0.0
2014-Aug-10 08:33N 29°31' W 091°16'0 0.0
2014-Aug-10 07:33N 29°31' W 091°16'0 0.0
2014-Aug-10 06:22N 29°31' W 091°16'0 0.0
2014-Aug-10 05:29N 29°31' W 091°16'0 0.0
2014-Aug-10 04:29N 29°31' W 091°16'0 0.0
2014-Aug-10 03:33N 29°31' W 091°16'0 0.0
2014-Aug-10 02:31N 29°31' W 091°16'0 0.0
2014-Aug-10 01:31N 29°31' W 091°16'  

Dump ship's entire track history